Date,TemperatureHighF,TemperatureAvgF,TemperatureLowF,DewpointHighF,DewpointAvgF,DewpointLowF,HumidityHigh,HumidityAvg,HumidityLow,PressureMaxIn,PressureMinIn,WindSpeedMaxMPH,WindSpeedAvgMPH,GustSpeedMaxMPH,PrecipitationSumIn
2013-3-1,36.3,27.0,23.9,15.1,8.2,0.6,66,46,30,29.18,29.00,10,4,10,0.00
2013-3-2,40.6,24.7,15.1,8.7,4.1,-2.3,68,42,23,29.18,29.03,14,2,14,0.00
2013-3-3,42.1,28.6,18.5,13.1,5.8,0.6,59,39,23,29.03,28.76,15,5,15,0.00
2013-3-4,45.5,33.4,28.0,26.4,17.3,11.4,80,53,28,28.82,28.64,15,6,15,0.00
2013-3-5,34.9,29.3,25.2,28.8,13.4,2.8,87,52,34,29.15,28.79,22,5,22,0.00
2013-3-6,43.0,25.7,15.8,11.3,7.5,0.6,76,48,23,29.26,29.15,17,3,17,0.00
2013-3-7,43.5,26.1,12.2,15.4,8.8,2.5,82,51,25,29.21,29.09,12,4,12,0.00
2013-3-8,48.0,35.0,22.5,31.5,16.1,9.5,82,49,27,29.12,28.88,13,5,13,0.08
2013-3-9,44.2,40.2,36.5,42.9,37.5,31.2,95,90,74,28.88,28.50,15,4,15,0.43
2013-3-10,42.1,36.6,31.5,40.8,34.8,27.6,95,93,86,28.64,28.50,14,4,14,0.24
2013-3-11,31.3,26.3,21.2,27.6,14.4,6.0,86,62,41,28.82,28.61,0,0,0,0.00
2013-3-12,35.1,25.6,18.1,15.8,9.0,3.9,76,50,34,29.12,28.79,0,0,0,0.00
2013-3-13,43.3,25.3,15.1,7.7,3.2,-1.0,58,40,21,29.29,29.12,8,1,8,0.00
2013-3-14,58.8,38.6,23.9,23.4,14.4,4.2,76,40,17,29.18,28.94,11,2,11,0.08
2013-3-15,70.3,43.1,27.9,35.5,26.9,20.0,94,60,17,28.94,28.59,13,2,13,0.00
2013-3-16,39.0,33.0,26.4,29.3,15.1,6.3,78,50,29,29.06,28.67,15,5,15,0.00
2013-3-17,44.2,31.6,20.3,16.5,8.8,1.7,55,39,25,29.06,28.70,16,6,16,0.00
2013-3-18,36.0,29.5,20.3,31.7,12.6,-1.8,88,53,30,28.85,28.59,27,5,27,0.00
2013-3-19,44.2,26.8,15.1,10.2,0.1,-8.2,52,32,21,29.12,28.85,22,4,22,0.00
2013-3-20,29.7,21.2,13.5,6.0,-4.0,-10.1,48,33,23,29.21,29.00,28,6,28,0.00
2013-3-21,46.0,24.6,7.0,6.6,-1.7,-9.9,48,33,20,29.00,28.82,11,3,11,0.00
2013-3-22,47.3,30.5,16.9,11.6,4.8,-2.2,61,36,20,28.94,28.85,9,3,9,0.00
2013-3-23,45.9,32.1,26.4,24.1,10.1,1.0,76,42,20,29.00,28.85,13,3,13,0.00
2013-3-24,32.4,29.2,26.4,23.3,17.7,9.5,79,63,41,28.88,28.76,15,5,15,0.00
2013-3-25,38.7,31.1,26.4,23.0,13.0,3.3,80,50,26,29.12,28.82,17,5,17,0.00
2013-3-26,50.2,30.2,21.0,13.4,7.1,1.5,61,39,19,29.21,29.12,13,3,13,0.00
2013-3-27,58.3,36.4,18.3,26.9,11.2,4.7,90,41,17,29.21,29.09,10,2,10,0.00
2013-3-28,65.8,43.9,25.5,25.5,16.5,8.9,85,39,15,29.15,29.06,11,3,11,0.00
2013-3-29,70.9,49.4,29.7,33.1,19.1,11.1,91,37,14,29.15,28.97,13,3,13,0.00
2013-3-30,70.7,50.5,43.7,45.9,32.9,16.7,91,55,23,28.97,28.73,11,3,11,0.08
2013-3-31,55.0,43.4,33.3,42.2,22.5,6.4,95,51,18,28.97,28.76,20,4,20,0.00